Frosh-Soph Girls 2 Mile
9/7/2019
Lagoon Valley Classic Invitational

  • Individual Results
    PlaceTmPlNo.Name (Yr)TdSchoolTime
  • 111420Louisa McNatt (9)FSMcClatchy13:11.3
  • 225395Mahalia Quintana (10)FSWoodland13:20.5
  • 331069Carly Foster (9)FSGranite Bay13:24.8
  • 445257Paige Unger (9)FSWillow Glen13:28.4
  • 552022Olivia Schlieman (9)FSRio Americano13:35.5
  • 66466Abby Carroll (9)FSDavis13:37.7
  • 771419Anna McNatt (9)FSMcClatchy13:40.0
  • 881488Avani Kalari (9)FSMonta Vista13:43.3
  • 995399Isabella Rico (10)FSWoodland13:49.3
  • 1010485Norah Dulaney (9)FSDavis13:52.5
  • 11115107Katie Kopec (9)FSWhitney13:53.7
  • 12122413Anna Fawcett (9)FSSt Francis (mv)14:02.0
  • 13131151Emily Aronhalt (10)FSInderkum14:09.5
  • 1414270Isabelle Rasmussen (10)FSBella Vista14:12.0
  • 15152507Hinako Yamamoto (9)FSSt Francis (mv)14:14.6
  • 16165018Ahnali Wisniewski (10)FSVintage14:16.1
  • 17171517Sydney Stevens (9)FSMonta Vista14:18.3
  • 18185045Lily Stockmans (10)FSWestmont14:33.8
  • 19191364Peyton Derepentigny (10)FSLincoln-L14:39.4
  • 20 2693Jessica Sime (10)FSUnion Mine14:41.4
  • 21 5055Janiah Basco (9)FSWeston Ranch14:45.0
  • 22205076Elena Collier (10)FSWhitney14:49.8
  • 23212405Felicity Desuasido (10)FSSt Francis (mv)14:54.7
  • 24225325Rebekah Heninger (10)FSWoodcreek14:56.2
  • 25232107Annie Wild (9)FSRipon14:57.3
  • 26241062Ryen Blanco (9)FSGranite Bay15:01.8
  • 27 974Emily Murray (10)FSFoothill (pc)15:03.1
  • 2825212Chloe Baade (10)FSBella Vista15:03.1
  • 29261102Olivia Wiese (9)FSGranite Bay15:03.8
  • 30271414Olivia Johnson (9)FSMcClatchy15:04.0
  • 3128489Grace Dwyer (10)FSDavis15:04.1
  • 32291502Nerea Northrop (9)FSMonta Vista15:04.2
  • 33305369Kamden Sonoyama (10)FSWoodcreek15:04.2
  • 34312717Jillian Ferreira (10)FSVacaville15:04.4
  • 35321405Olivia Correia (10)FSMcClatchy15:05.0
  • 36332425Katelyn Hasser (9)FSSt Francis (mv)15:05.2
  • 37342239Hannah Bettencourt (10)FSRoseville15:05.3
  • 38355037Avalon Kelly (9)FSWestmont15:05.9
  • 39361028Ariana Puccini (9)FSFranklin (eg)15:07.3
  • 40375326Aaliyah Hill (9)FSWoodcreek15:07.9
  • 41385140Tyler Williams (9)FSWhitney15:08.8
  • 42392501Genevieve Vellequett (9)FSSt Francis (mv)15:13.8
  • 43402500Arielle Vellequette (9)FSSt Francis (mv)15:14.4
  • 44411032Sia Sama (9)FSFranklin (eg)15:14.7
  • 4542260Kyra Manley (10)FSBella Vista15:14.8
  • 46431038Sophia Xu (9)FSFranklin (eg)15:15.0
  • 47442710Brooklyn Burton (9)FSVacaville15:16.7
  • 48455367Amelia Schulzkump (10)FSWoodcreek15:16.9
  • 49464904Hannah Shelton (10)FSVacaville15:18.1
  • 50471431Michelle Wee (10)FSMcClatchy15:18.7
  • 5148550Kaia Michaelis (10)FSDavis15:19.2
  • 52495341Alanna Laverty (9)FSWoodcreek15:19.8
  • 5350469Rebecca Chang (10)FSDavis15:21.0
  • 54 855Taylor Snaer (9)FSEast Union15:24.7
  • 55 843April Duarte (9)FSEast Union15:27.0
  • 5651510Amie Huang (9)FSDavis15:27.1
  • 57522003Neli McCrystle (10)FSRio Americano15:28.0
  • 58 910Autumn Doung (9)FSElk Grove15:29.1
  • 59535235Raven Nieto (9)FSWillow Glen15:30.7
  • 60541635Marielle Cuevas (10)FSNorth Salinas15:32.3
  • 61551495Anoushka Lakshmi (10)FSMonta Vista15:32.7
  • 62562225Nataliya Pyatkovska (10)FSRodriguez15:39.3
  • 63571415Harper Johnston (10)FSMcClatchy15:39.9
  • 64 968Zoe Carlin (10)FSFoothill (pc)15:40.0
  • 6558233Shaelyn Crichton (10)FSBella Vista15:40.0
  • 665975Erica Haley (10)FSAmador Valley15:40.7
  • 67604989Hana Duhig (10)FSVintage15:41.4
  • 6861178Jennifer O'Byrne (10)FSAthenian15:50.0
  • 696276Lois Hong (10)FSAmador Valley15:50.3
  • 70631514Nikhita Saldi (9)FSMonta Vista15:53.0
  • 71645110Emma Martinez (9)FSWhitney15:55.5
  • 72655404Clarissa Valdivia (9)FSWoodland15:57.3
  • 7366870Lenny Jaimes (10)FSEdison15:57.8
  • 7467170Kyra McCarrick (9)FSAthenian15:58.7
  • 75682099Asia Rose (9)FSRipon16:00.4
  • 76691020Lydia Mendoza (10)FSFranklin (eg)16:00.6
  • 77 4951Mariessa McLaughlin (9)FSVanden16:01.4
  • 78705317Leah Gibbs (9)FSWoodcreek16:04.4
  • 79715048Angelie Weis (9)FSWestmont16:05.2
  • 80722712Allison Cline (9)FSVacaville16:05.2
  • 81735106Hailey Kelly (10)FSWhitney16:05.3
  • 82 300Kaitlyn McCorkle (10)FSBuckingham16:06.7
  • 83741089Audrey Ralli (10)FSGranite Bay16:07.7
  • 84755256Katelynn Stocks (9)FSWillow Glen16:08.1
  • 857671Ritika Ghosh (9)FSAmador Valley16:09.4
  • 86 903Christy Au (10)FSElk Grove16:09.4
  • 8777490Keira Emmett (10)FSDavis16:10.0
  • 8878159Amanda Cutrer (9)FSAthenian16:11.4
  • 89792721Carlie Goodsen (10)FSVacaville16:12.9
  • 90802294Jenna Cecil (10)FSSheldon (ca)16:13.7
  • 91812257Alexandra Sanders (9)FSRoseville16:14.8
  • 92825039Amelia Lipcsei (9)FSWestmont16:16.3
  • 93 1553Krystol Newton (9)FSMonterey Trail16:17.4
  • 9483124Peyton Clark (9)FSArgonaut16:18.1
  • 95842118Camille Cameron (9)FSRiver City16:19.7
  • 96851059Hannah Austin (9)FSGranite Bay16:20.6
  • 97 1859Coco Russell (9)FSPleasant Grove16:20.8
  • 98861088Mia Oliveira (9)FSGranite Bay16:22.2
  • 99872409Sydney Ekuan (9)FSSt Francis (mv)16:24.6
  • 100881153Brecken Bartells (10)FSInderkum16:27.0
  • 101 1867Alina Solis (9)FSPleasant Grove16:27.9
  • 102 2476Samantha Phillips (10)FSSt Francis (mv)16:30.7
  • 103891903Malea Victor (10)FSPleasant Valley16:31.3
  • 104901422Magdalena Niemeyer (10)FSMcClatchy16:31.6
  • 105911025Mikaiya Philip (9)FSFranklin (eg)16:34.2
  • 106921081Malia Martin (9)FSGranite Bay16:34.4
  • 107 2465Olivia Nazari (10)FSSt Francis (mv)16:34.4
  • 108935067Mariana Blanding (9)FSWhitney16:37.5
  • 109 1297Linh Nguyen (9)FSLaguna Creek16:38.3
  • 110 5447Lily Marshall (9)FSKennedy16:38.4
  • 111942245Amelia Harris (10)FSRoseville16:42.8
  • 112 1824Felicia Do (9)FSPleasant Grove16:43.4
  • 11395241Danielle Hann (10)FSBella Vista16:44.5
  • 1149674Greeshma Gundavaram (10)FSAmador Valley16:44.6
  • 115975236Chanel Nieto (9)FSWillow Glen16:47.3
  • 116 524Grace Kishiyama (10)FSDavis16:48.1
  • 117981001Ruth Chew (9)FSFranklin (eg)16:48.7
  • 118995087Ashanti Elie (9)FSWhitney16:51.4
  • 119 2499Skylar Tuch (9)FSSt Francis (mv)16:52.7
  • 120 304Maddy Quesada (9)FSBuckingham16:52.8
  • 1211001929Jasmine Marquez (9)FSPonderosa16:53.0
  • 1221014979Ainsley Adams (10)FSVintage16:54.7
  • 1231025334Katherine Kaff (10)FSWoodcreek16:56.7
  • 1241031936Lauren Pfeifer (9)FSPonderosa16:56.8
  • 1251042259Rebecca Templeton (10)FSRoseville16:57.3
  • 1261052098Jeily Reynoso (9)FSRipon16:58.0
  • 127 2509Jullian Yujuico (9)FSSt Francis (mv)16:58.7
  • 128 5091Cailin Fitzgerald (10)FSWhitney16:59.7
  • 129 5134Rachel Tajiri (10)FSWhitney17:01.3
  • 130 1814Tyra Bell (9)FSPleasant Grove17:03.6
  • 131 5305Ilona Borichef (10)FSWoodcreek17:04.2
  • 132 5092Ashlyn Fujioka (10)FSWhitney17:05.7
  • 1331061023Angel Ojije (9)FSFranklin (eg)17:06.9
  • 13410795Angela Qian (9)FSAmador Valley17:07.0
  • 135 5153Kaydence Garrison (10)FSWill C. Wood17:07.5
  • 1361082200Magdalene Chin (10)FSRodriguez17:08.7
  • 137 5131Jane Sherman (9)FSWhitney17:09.7
  • 138 2491Devon Swanson (9)FSSt Francis (mv)17:10.7
  • 139 375Savannah Haeckel (10)FSCentral Valley17:10.7
  • 1401091928Darby Lewis (10)FSPonderosa17:11.3
  • 141 5375Rachel Watson (10)FSWoodcreek17:11.4
  • 1421105392Alliha Mahboob (10)FSWoodland17:11.8
  • 1431115014Grace Marseilles (10)FSVintage17:12.6
  • 1441121657Isabella Rocha (9)FSNorth Salinas17:13.3
  • 145 5360Reagan Renoult (10)FSWoodcreek17:13.9
  • 146 5308Samiya Callnon (9)FSWoodcreek17:14.4
  • 147 5071Emma Carlson (9)FSWhitney17:15.6
  • 1481131884Emilee Hooks (10)FSPleasant Valley17:16.7
  • 149 2408Alexa Egan (9)FSSt Francis (mv)17:18.6
  • 150 5310Sara Delgado (10)FSWoodcreek17:21.7
  • 151 5127Grace Ryu (10)FSWhitney17:23.2
  • 152114224Vara Brockett (9)FSBella Vista17:23.5
  • 1531152246Rachel Jenness-Hobbs (10)FSRoseville17:23.7
  • 1541165245Mariana Ponce (10)FSWillow Glen17:25.1
  • 1551171808Younique Wethington (9)FSPioneer17:25.4
  • 1561182293Danyka Burrill (10)FSSheldon (ca)17:26.4
  • 1571192306Rachel Le (9)FSSheldon (ca)17:29.6
  • 1581205038Aneska Lee (10)FSWestmont17:30.3
  • 159 2482Sofia Ruiz (10)FSSt Francis (mv)17:31.1
  • 1601212085Kalani Kahandawala (10)FSRipon17:31.1
  • 1611222029Sierra Witte (10)FSRio Americano17:33.9
  • 162123713Sophia Nardozzi (9)FSDel Campo17:34.2
  • 163 993Nia Babbitt (9)FSFranklin (eg)17:35.2
  • 1641241470Vidya Bharadwaj (9)FSMonta Vista17:35.7
  • 1651255196Makeya Calhoun (10)FSWillow Glen17:36.0
  • 1661261797Madison Jones (10)FSPioneer17:36.3
  • 1671272079Joselin Figueroa (9)FSRipon17:37.2
  • 168 2397Anabella Conti (9)FSSt Francis (mv)17:37.3
  • 169128871Dianna Jimenez-Herna (9)FSEdison17:37.7
  • 1701291912Daniela Castellanos (10)FSPonderosa17:38.1
  • 171 455Emily Bennett (10)FSDavis17:38.6
  • 1721301193Stephnie Shen (9)FSInderkum17:41.9
  • 173 1017Isabel Lyons (10)FSFranklin (eg)17:42.2
  • 1741315000Lilla Kasper (9)FSVintage17:42.3
  • 1751321192Liz Scharf (9)FSInderkum17:43.9
  • 176 2475Holly Pham (9)FSSt Francis (mv)17:44.1
  • 177 1404Billie Cooper (10)FSMcClatchy17:45.6
  • 1781331671Alexis Zaragoza-Vall (10)FSNorth Salinas17:45.6
  • 179 518Nicole Kang (10)FSDavis17:47.1
  • 1801344996Tanner Henry (9)FSVintage17:49.3
  • 181 934Sarah Null (9)FSElk Grove17:50.2
  • 182 505Bridgette Her (10)FSDavis17:54.5
  • 1831351374Armani Ledezma (10)FSLincoln-L17:55.3
  • 1841361668Ximena Vega (9)FSNorth Salinas17:56.1
  • 185 373Marisa Doers (9)FSCentral Valley17:56.5
  • 1861371505Vani Putheti (9)FSMonta Vista17:59.2
  • 1871382088Lauren Martini (9)FSRipon18:00.8
  • 188 1082Marian McDaniel (9)FSGranite Bay18:00.8
  • 1891392305Kelly Le (10)FSSheldon (ca)18:02.2
  • 190 2461Ella Morey (10)FSSt Francis (mv)18:02.7
  • 1911405010Natalie Scott (10)FSVintage18:03.9
  • 192 2406Gabriella Dominguez (9)FSSt Francis (mv)18:04.9
  • 193 2688Olivia McHargue (10)FSUnion Mine18:05.5
  • 194141707Melody Marez (10)FSDel Campo18:06.1
  • 195142712Adelynn Moore (9)FSDel Campo18:06.5
  • 1961431800Samirah Osborne (10)FSPioneer18:08.3
  • 1971445168Brianna Jahner (9)FSRodriguez18:10.6
  • 198145115Heejee Yoon (9)FSAmador Valley18:11.9
  • 199146714Hajar Ouadrhiri (10)FSDel Campo18:12.0
  • 200 5105Skylar Jones (10)FSWhitney18:13.1
  • 201147227Collette Campbell (10)FSBella Vista18:14.2
  • 202 522Anna Kelly (9)FSDavis18:14.3
  • 203 559Jessica Oslund (9)FSDavis18:14.5
  • 204 838Luz Santos (10)FSDixon18:15.3
  • 205 752Sophia Goetluck (9)FSDel Oro18:17.5
  • 206 335Riley Jason (10)FSCasa Roble18:18.5
  • 2071481922Kayla Johnson (10)FSPonderosa18:20.7
  • 2081492253Keira Noonan (10)FSRoseville18:28.1
  • 2091505401Ana Santana (9)FSWoodland18:29.3
  • 210 4995Milani Harris (10)FSVintage18:29.8
  • 211151177Tess Murphy (9)FSAthenian18:30.2
  • 212 1767Samantha Montoya (10)FSPatterson18:30.6
  • 213 576Isabella Romo (10)FSDavis18:30.6
  • 214 370Michelle Dela Cruz (9)FSCentral Valley18:32.6
  • 215 4981Natasha Beitz (10)FSVintage18:36.4
  • 2161521608Anna Scudero (9)FSNapa18:38.3
  • 217 2434Mia Kao (9)FSSt Francis (mv)18:38.8
  • 218 1099Rylee Thompson (10)FSGranite Bay18:38.8
  • 219 2492Hana Sweatt (9)FSSt Francis (mv)18:39.4
  • 220 2420Clara Gobbett (9)FSSt Francis (mv)18:45.2
  • 2211531366Marley Everts (9)FSLincoln-L18:46.0
  • 222 1525Claire Yang (10)FSMonta Vista18:46.4
  • 223 1308Savanna Stuepfert (9)FSLaguna Creek18:48.9
  • 2241542231Faith Sears (9)FSRodriguez18:49.9
  • 2251552205Alyssa Goldstein (9)FSRodriguez18:50.7
  • 226156185Sophie Swida (9)FSAthenian18:51.6
  • 227 5313Tesa Federizo (10)FSWoodcreek18:51.9
  • 2281571570Heidi Gadasy (10)FSNapa18:52.6
  • 2291581924Kiersten Kozycz (9)FSPonderosa18:53.3
  • 2301591793Jessica Heras Perez (9)FSPioneer18:54.5
  • 231 1072Kati Hlawaty (10)FSGranite Bay18:58.0
  • 232 476Hannah Daum (10)FSDavis19:03.8
  • 233 1491Meena Kolli (9)FSMonta Vista19:04.3
  • 234 2272Grace Eberhart (9)FSSac Country Day19:04.6
  • 235 4942Natalie Boals (9)FSVanden19:05.5
  • 236 458Anaya Browning (9)FSDavis19:07.0
  • 237 832Kyler Flournoy (9)FSDixon19:10.6
  • 238160155Hollis Carey (10)FSAthenian19:11.7
  • 239 1268Claire Kinego (10)FSKit Carson19:13.6
  • 240 1311Thuyen Tran (10)FSLaguna Creek19:14.9
  • 241161868Neida Guzman (10)FSEdison19:15.0
  • 2421621175Alina Lowe (9)FSInderkum19:17.5
  • 243163129Rachel Flagg (10)FSArgonaut19:18.1
  • 244 1741Joselin Calderon (9)FSPatterson19:18.5
  • 245164119Madison Atwood (10)FSArgonaut19:20.1
  • 246165689Lorena Vazquez (9)FSDeer Valley19:20.7
  • 2471661367Ashlyn Fernandez (10)FSLincoln-L19:22.4
  • 248167701Emma Ethier (9)FSDel Campo19:23.2
  • 2491682124Julia Faiello (10)FSRiver City19:24.0
  • 250169879Honey Lizama (12)FSEdison19:25.9
  • 251 538Megan Lovell (10)FSDavis19:26.4
  • 252 1051Frida Ramirez (9)FSFranklin (s)19:26.8
  • 2531702312Haylee McConnell (9)FSSheldon (ca)19:27.8
  • 254 1746Cecilia Deleon Baeza (10)FSPatterson19:29.9
  • 2551712170Kate Zink (9)FSRiver City19:30.2
  • 256172429Estefany Gonzalez-Za (10)FSCordova19:30.4
  • 2571732734Tatianna Luna (9)FSVacaville19:30.6
  • 2581741581Chloe Dinsdale (9)FSNapa19:31.9
  • 2591752345Catalina Voicu (9)FSSheldon (ca)19:34.3
  • 260 5006Susana Nuno (9)FSVintage19:34.7
  • 2611761602Angelina Oggenfuss (9)FSNapa19:36.3
  • 2621771880Jessi Garrett (10)FSPleasant Valley19:36.6
  • 263178657Rosaly Crisp (9)FSDeer Valley19:37.3
  • 2641792227Olivia Ricard (10)FSRodriguez19:37.6
  • 2651801788Alondra Facundo (10)FSPioneer19:38.2
  • 266 4948Jordyn Gonzalez (9)FSVanden19:39.0
  • 267 5346Ocean Marshall (10)FSWoodcreek19:42.3
  • 268 2421Victoria Green (9)FSSt Francis (mv)19:47.9
  • 269 590Kalista Toups (10)FSDavis19:48.1
  • 270 2495Jennifer Tolland (9)FSSt Francis (mv)19:50.0
  • 2711811891Diya Patel (10)FSPleasant Valley19:51.5
  • 2721825381Talia Cadena (9)FSWoodland19:54.0
  • 273 5276Brianna Henry (9)FSWindsor20:02.3
  • 2741832147Yana Patel (10)FSRiver City20:06.3
  • 2751842121Agnesa Panova (11)FSRiver City20:15.5
  • 2761851582Haven Domecus (9)FSNapa20:17.3
  • 2771862007Surina Naran (9)FSRio Americano20:20.4
  • 278187189Noelle Woodward (9)FSAthenian20:21.3
  • 2791882208Scarlett Hodge (10)FSRodriguez20:21.8
  • 280 5180Holly Tordoff (10)FSWill C. Wood20:22.9
  • 281 5146Verenice Belmonte (10)FSWill C. Wood20:28.2
  • 28218997Soumya Rangan (9)FSAmador Valley20:33.0
  • 283 17Caitlyn Platt (10)FSAbraham Lincoln20:34.4
  • 2841901876Leticia Castillo (9)FSPleasant Valley20:41.3
  • 2851911958Vanessa Billingsley (10)FSRio Americano20:42.3
  • 286 1272Sophia Oberst (10)FSKit Carson20:44.0
  • 287 5061Jaqui Alvarez (10)FSWhitney20:46.1
  • 2881922115Adelina Armijo (10)FSRiver City20:48.0
  • 289193417Annabelle Bottimore (9)FSCordova20:49.2
  • 290194696Izabella Castro (9)FSDel Campo20:49.4
  • 291 560Valeria Padilla (10)FSDavis20:51.7
  • 292195660Joy Ezeibe (9)FSDeer Valley20:53.0
  • 293 5377Arianna Woodruff (9)FSWoodcreek21:00.7
  • 294 2228Lina Riggs (9)FSRodriguez21:07.7
  • 295 473Stephanie Cole (10)FSDavis21:07.7
  • 296 2430Alexa Johnson (9)FSSt Francis (mv)21:18.0
  • 297196860Yuliana Chavez-Garci (10)FSEdison21:18.1
  • 2981971177Nayeli Navarrete (9)FSInderkum21:23.3
  • 299 2058Scarlett Dole (10)FSRio Vista21:26.0
  • 300 64Jayani Chidipotu (11)FSAmador Valley21:26.3
  • 301 2404Chianna Demanuele (9)FSSt Francis (mv)21:30.4
  • 3021982087Alannah Lehr (9)FSRipon21:34.3
  • 303 327Iris Boudrez (10)FSCasa Roble21:34.7
  • 3041991803Keira Ruesga (10)FSPioneer21:38.0
  • 305 349Eden Webb (9)FSCasa Roble21:39.3
  • 306200661Victoria Ezeibe (9)FSDeer Valley21:42.2
  • 307201128Amanda Flagg (10)FSArgonaut21:51.5
  • 308 5094Anna Giorgi (10)FSWhitney21:52.7
  • 309 2057Kayla Delk (10)FSRio Vista21:53.5
  • 310202122Lana Bayer (9)FSArgonaut22:11.7
  • 311 508Melody Ho (9)FSDavis22:15.4
  • 3122031976Grace Ducker (10)FSRio Americano22:15.5
  • 313 764Bethany Martin (9)FSDel Oro22:21.8
  • 314 529Amelia Krumwide (9)FSDavis22:27.8
  • 315204421Gabriela Cruz (10)FSCordova22:27.8
  • 316205439Karissa Sullivan (10)FSCordova22:29.8
  • 3172061646Jennifer Islas (9)FSNorth Salinas22:31.2
  • 318 494Ellen Ferguson (9)FSDavis22:59.2
  • 319207433Ximena Medina (9)FSCordova23:01.2
  • 320208674Lydia Lua (10)FSDeer Valley23:10.2
  • 3212091932Cindy Nolasco (9)FSPonderosa23:33.7
  • 3222101359McKenna Budge (10)FSLincoln-L23:54.3
  • 3232111656Melisa Rangel (9)FSNorth Salinas24:12.0
  • 324212685Martha Sosa (10)FSDeer Valley24:15.5
  • 325 1489Insiah Kizilbash (9)FSMonta Vista32:06.5
  • 326213650Aimee Albanese (9)FSDeer Valley32:25.0
  • 3272141378Toni Juarez (10)FSLincoln-L32:26.5
  • 3282151389Ruth Pascual (9)FSLincoln-L32:26.7
  • 329 5164Navdeep Kaur (10)FSWill C. Wood33:21.3
  • 330 679Odera Osakwe (11)FSDeer Valley33:59.1
  • 331 562Rela Paparaju (10)FSDavis34:06.0
  • Frosh-Soph Girls
  • Team Results and Scores
  • 1.114McClatchy (Ave: 14:27.8, Total: 72:19.0, Range: 2:07.4)
    1Louisa McNattFS 13:11.31
    2Anna McNattFS 13:40.07
    3Olivia JohnsonFS 15:04.027
    4Olivia CorreiaFS 15:05.032
    5Michelle WeeFS 15:18.747
    6Harper JohnstonFS 15:39.9( 57)
    7Magdalena NiemeyerFS 16:31.6( 90)
  • 2.120St Francis(mv) (Ave: 14:42.1, Total: 73:30.3, Range: 1:11.8)
    1Anna FawcettFS 14:02.012
    2Hinako YamamotoFS 14:14.615
    3Felicity DesuasidoFS 14:54.721
    4Katelyn HasserFS 15:05.233
    5Genevieve Vellequette 9FS 15:13.839
    6Arielle Vellequette 9FS 15:14.4( 40)
    7Sydney EkuanFS 16:24.6( 87)
  • 3.142Davis (Ave: 14:38.9, Total: 73:14.5, Range: 1:43.3)
    1Abby CarrollFS 13:37.76
    2Norah DulaneyFS 13:52.510
    3Grace DwyerFS 15:04.128
    4Kaia MichaelisFS 15:19.248
    5Rebecca ChangFS 15:21.050
    6Amie HuangFS 15:27.1( 51)
    7Keira EmmettFS 16:10.0( 77)
  • 4.172Monta Vista (Ave: 14:54.3, Total: 74:31.5, Range: 2:09.7)
    1Avani KalariFS 13:43.38
    2Sydney StevensFS 14:18.317
    3Nerea NorthropFS 15:04.229
    4Anoushka LakshmiFS 15:32.755
    5Nikhita SaldiFS 15:53.063
    6Vidya BharadwajFS 17:35.7(124)
    7Vani PuthetiFS 17:59.2(137)
  • 5.183Woodcreek (Ave: 15:09.0, Total: 75:45.0, Range: 0:23.6)
    1Rebekah HeningerFS 14:56.222
    2Kamden SonoyamaFS 15:04.230
    3Aaliyah HillFS 15:07.937
    4Amelia SchulzkumpFS 15:16.945
    5Alanna LavertyFS 15:19.849
    6Leah GibbsFS 16:04.4( 70)
    7Katherine KaffFS 16:56.7(102)
  • 6.206Whitney (Ave: 15:10.7, Total: 75:53.1, Range: 2:11.6)
    1Katie KopecFS 13:53.711
    2Elena CollierFS 14:49.820
    3Tyler WilliamsFS 15:08.838
    4Emma MartinezFS 15:55.564
    5Hailey KellyFS 16:05.373
    6Mariana BlandingFS 16:37.5( 93)
    7Ashanti ElieFS 16:51.4( 99)
  • 7.212Granite Bay (Ave: 15:11.8, Total: 75:58.7, Range: 2:55.8)
    1Carly FosterFS 13:24.83
    2Ryen BlancoFS 15:01.824
    3Olivia WieseFS 15:03.826
    4Audrey RalliFS 16:07.774
    5Hannah AustinFS 16:20.685
    6Mia OliveiraFS 16:22.2( 86)
    7Malia MartinFS 16:34.4( 92)
  • 8.234Bella Vista (Ave: 15:22.9, Total: 76:54.4, Range: 2:32.5)
    1Isabelle RasmussenFS 14:12.014
    2Chloe BaadeFS 15:03.125
    3Kyra ManleyFS 15:14.842
    4Shaelyn CrichtonFS 15:40.058
    5Danielle HannFS 16:44.595
    6Vara BrockettFS 17:23.5(114)
    7Collette CampbellFS 18:14.2(147)
  • 9.272Vacaville (Ave: 15:35.5, Total: 77:57.3, Range: 1:08.5)
    1Jillian FerreiraFS 15:04.431
    2Brooklyn BurtonFS 15:16.744
    3Hannah SheltonFS 15:18.146
    4Allison ClineFS 16:05.272
    5Carlie GoodsenFS 16:12.979
    6Tatianna LunaFS 19:30.6(173)
  • 10.280Franklin(eg) (Ave: 15:38.4, Total: 78:11.8, Range: 1:26.9)
    1Ariana PucciniFS 15:07.336
    2Sia SamaFS 15:14.741
    3Sophia XuFS 15:15.043
    4Lydia MendozaFS 16:00.669
    5Mikaiya PhilipFS 16:34.291
    6Ruth ChewFS 16:48.7( 98)
    7Angel OjijeFS 17:06.9(106)
  • 11.326Westmont (Ave: 15:54.3, Total: 79:31.5, Range: 2:56.5)
    1Lily StockmansFS 14:33.818
    2Avalon KellyFS 15:05.935
    3Angelie WeisFS 16:05.271
    4Amelia LipcseiFS 16:16.382
    5Aneska LeeFS 17:30.3120
  • 12.336Woodland (Ave: 15:45.7, Total: 78:48.2, Range: 5:08.8)
    1Mahalia QuintanaFS 13:20.52
    2Isabella RicoFS 13:49.39
    3Clarissa ValdiviaFS 15:57.365
    4Alliha MahboobFS 17:11.8110
    5Ana SantanaFS 18:29.3150
    6Talia CadenaFS 19:54.0(182)
  • 13.345Willow Glen (Ave: 15:52.0, Total: 79:19.6, Range: 3:56.7)
    1Paige UngerFS 13:28.44
    2Raven NietoFS 15:30.753
    3Katelynn StocksFS 16:08.175
    4Chanel NietoFS 16:47.397
    5Mariana PonceFS 17:25.1116
    6Makeya CalhounFS 17:36.0(125)
  • 14.400Amador Valley (Ave: 16:18.4, Total: 81:32.0, Range: 1:26.3)
    1Erica HaleyFS 15:40.759
    2Lois HongFS 15:50.362
    3Ritika GhoshFS 16:09.476
    4Greeshma Gundavaram 10FS 16:44.696
    5Angela QianFS 17:07.0107
    6Heejee YoonFS 18:11.9(145)
    7Soumya RanganFS 20:33.0(189)
  • 15.419Vintage (Ave: 16:21.5, Total: 81:47.1, Range: 3:26.2)
    1Ahnali WisniewskiFS 14:16.116
    2Hana DuhigFS 15:41.460
    3Ainsley AdamsFS 16:54.7101
    4Grace MarseillesFS 17:12.6111
    5Lilla KasperFS 17:42.3131
    6Tanner HenryFS 17:49.3(134)
    7Natalie ScottFS 18:03.9(140)
  • 16.428Roseville (Ave: 16:28.8, Total: 82:23.9, Range: 2:18.4)
    1Hannah BettencourtFS 15:05.334
    2Alexandra SandersFS 16:14.881
    3Amelia HarrisFS 16:42.894
    4Rebecca TempletonFS 16:57.3104
    5Rachel Jenness-Hobbs 10FS 17:23.7115
    6Keira NoonanFS 18:28.1(149)
  • 17.444Ripon (Ave: 16:36.8, Total: 83:04.0, Range: 2:39.9)
    1Annie WildFS 14:57.323
    2Asia RoseFS 16:00.468
    3Jeily ReynosoFS 16:58.0105
    4Kalani KahandawalaFS 17:31.1121
    5Joselin FigueroaFS 17:37.2127
    6Lauren MartiniFS 18:00.8(138)
    7Alannah LehrFS 21:34.3(198)
  • 18.513Athenian (Ave: 17:04.4, Total: 85:21.9, Range: 3:01.6)
    1Jennifer O'ByrneFS 15:50.061
    2Kyra McCarrickFS 15:58.767
    3Amanda CutrerFS 16:11.478
    4Tess MurphyFS 18:30.2151
    5Sophie SwidaFS 18:51.6156
    6Hollis CareyFS 19:11.7(160)
    7Noelle WoodwardFS 20:21.3(187)
  • 19.525Inderkum (Ave: 17:04.0, Total: 85:19.8, Range: 5:08.0)
    1Emily AronhaltFS 14:09.513
    2Brecken BartellsFS 16:27.088
    3Stephnie ShenFS 17:41.9130
    4Liz ScharfFS 17:43.9132
    5Alina LoweFS 19:17.5162
    6Nayeli NavarreteFS 21:23.3(197)
  • 20.556Rio Americano (Ave: 17:32.1, Total: 87:40.1, Range: 7:06.8)
    1Olivia SchliemanFS 13:35.55
    2Neli McCrystleFS 15:28.052
    3Sierra WitteFS 17:33.9122
    4Surina NaranFS 20:20.4186
    5Vanessa Billingsley 10FS 20:42.3191
    6Grace DuckerFS 22:15.5(203)
  • 21.589Ponderosa (Ave: 17:24.0, Total: 86:59.9, Range: 1:27.7)
    1Jasmine MarquezFS 16:53.0100
    2Lauren PfeiferFS 16:56.8103
    3Darby LewisFS 17:11.3109
    4Daniela Castellanos 10FS 17:38.1129
    5Kayla JohnsonFS 18:20.7148
    6Kiersten KozyczFS 18:53.3(158)
    7Cindy NolascoFS 23:33.7(209)
  • 22.617Rodriguez (Ave: 17:43.9, Total: 88:39.2, Range: 3:11.4)
    1Nataliya Pyatkovska 10FS 15:39.356
    2Magdalene ChinFS 17:08.7108
    3Brianna JahnerFS 18:10.6144
    4Faith SearsFS 18:49.9154
    5Alyssa GoldsteinFS 18:50.7155
    6Olivia RicardFS 19:37.6(179)
    7Scarlett HodgeFS 20:21.8(188)
  • 23.626Sheldon(ca) (Ave: 17:44.0, Total: 88:39.7, Range: 3:14.1)
    1Jenna CecilFS 16:13.780
    2Danyka BurrillFS 17:26.4118
    3Rachel LeFS 17:29.6119
    4Kelly LeFS 18:02.2139
    5Haylee McConnellFS 19:27.8170
    6Catalina VoicuFS 19:34.3(175)
  • 24.641North Salinas (Ave: 18:11.7, Total: 90:58.5, Range: 6:58.9)
    1Marielle CuevasFS 15:32.354
    2Isabella RochaFS 17:13.3112
    3Alexis Zaragoza-Valle 10FS 17:45.6133
    4Ximena VegaFS 17:56.1136
    5Jennifer IslasFS 22:31.2206
    6Melisa RangelFS 24:12.0(211)
  • 25.683Lincoln-L (Ave: 18:55.5, Total: 94:37.4, Range: 9:14.9)
    1Peyton Derepentigny 10FS 14:39.419
    2Armani LedezmaFS 17:55.3135
    3Marley EvertsFS 18:46.0153
    4Ashlyn FernandezFS 19:22.4166
    5McKenna BudgeFS 23:54.3210
    6Toni JuarezFS 32:26.5(214)
    7Ruth PascualFS 32:26.7(215)
  • 26.719Del Campo (Ave: 18:16.4, Total: 91:22.0, Range: 1:49.0)
    1Sophia NardozziFS 17:34.2123
    2Melody MarezFS 18:06.1141
    3Adelynn MooreFS 18:06.5142
    4Hajar OuadrhiriFS 18:12.0146
    5Emma EthierFS 19:23.2167
    6Izabella CastroFS 20:49.4(194)
  • 27.720Edison (Ave: 18:42.9, Total: 93:34.5, Range: 5:20.3)
    1Lenny JaimesFS 15:57.866
    2Dianna Jimenez-Hernan 9FS 17:37.7128
    3Neida GuzmanFS 19:15.0161
    4Honey LizamaFS 19:25.9169
    5Yuliana Chavez-Garcia 10FS 21:18.1196
  • 28.725Pioneer (Ave: 18:20.6, Total: 91:42.7, Range: 2:12.8)
    1Younique Wethington 9FS 17:25.4117
    2Madison JonesFS 17:36.3126
    3Samirah OsborneFS 18:08.3143
    4Jessica Heras PerezFS 18:54.5159
    5Alondra FacundoFS 19:38.2180
    6Keira RuesgaFS 21:38.0(199)
  • 29.750Pleasant Valley (Ave: 18:47.5, Total: 93:57.4, Range: 4:10.0)
    1Malea VictorFS 16:31.389
    2Emilee HooksFS 17:16.7113
    3Jessi GarrettFS 19:36.6177
    4Diya PatelFS 19:51.5181
    5Leticia CastilloFS 20:41.3190
  • 30.790River City (Ave: 19:07.2, Total: 95:35.7, Range: 3:55.8)
    1Camille CameronFS 16:19.784
    2Julia FaielloFS 19:24.0168
    3Kate ZinkFS 19:30.2171
    4Yana PatelFS 20:06.3183
    5Agnesa PanovaFS 20:15.5184
    6Adelina ArmijoFS 20:48.0(192)
  • 31.813Argonaut (Ave: 19:47.9, Total: 98:59.5, Range: 5:53.6)
    1Peyton ClarkFS 16:18.183
    2Rachel FlaggFS 19:18.1163
    3Madison AtwoodFS 19:20.1164
    4Amanda FlaggFS 21:51.5201
    5Lana BayerFS 22:11.7202
  • 32.844Napa (Ave: 19:23.3, Total: 96:56.4, Range: 1:39.0)
    1Anna ScuderoFS 18:38.3152
    2Heidi GadasyFS 18:52.6157
    3Chloe DinsdaleFS 19:31.9174
    4Angelina OggenfussFS 19:36.3176
    5Haven DomecusFS 20:17.3185
  • 33.946Deer Valley (Ave: 20:56.7, Total: 104:43.4, Range: 3:49.5)
    1Lorena VazquezFS 19:20.7165
    2Rosaly CrispFS 19:37.3178
    3Joy EzeibeFS 20:53.0195
    4Victoria EzeibeFS 21:42.2200
    5Lydia LuaFS 23:10.2208
    6Martha SosaFS 24:15.5(212)
    7Aimee AlbaneseFS 32:25.0(213)
  • 34.981Cordova (Ave: 21:39.7, Total: 108:18.4, Range: 3:30.8)
    1Estefany Gonzalez-Zaval 10FS 19:30.4172
    2Annabelle Bottimore 9FS 20:49.2193
    3Gabriela CruzFS 22:27.8204
    4Karissa SullivanFS 22:29.8205
    5Ximena MedinaFS 23:01.2207
Back